-> Other stations

1455

Speed(max): 0(0)knots
Direction:169° ( S)
Temperature: 17.6°C
Arrived: 2026-09-05 05:09:26 CEST

Past data:
hh:mmknots
Dir (°)
°C
05:07 0 0 SSE(167) 17.7
05:05 0 0 S(171) 17.7
05:03 0 0 SSE(167) 17.6
05:01 0 0 S(169) 17.6
04:59 0 0 S(172) 17.7
04:57 0 0 S(173) 17.6
04:55 0 0 S(170) 17.6
04:53 0 0 S(170) 17.5
04:51 0 0 SSE(167) 17.6
04:49 0 0 SSE(166) 17.6
04:47 0 0 SSE(166) 17.6
04:45 0 0 S(170) 17.6
04:43 0 0 SSE(168) 17.7
04:41 0 0 SSE(166) 17.8
15 min. averages:
hh:mmknots
Dir (°)
°C
05:00 0 0 S(169) 17.6
04:45 0 0 SSE(167) 17.7
04:30 0 0 SSE(168) 17.7
04:15 0 0 S(170) 17.9
04:00 0 0 SSE(167) 18.2
03:45 0 0 SSE(168) 18.0
03:30 0 0 SSE(168) 18.2
03:15 0 0 S(169) 18.1
03:00 0 0 SSE(167) 18.0
02:45 0 0 S(169) 18.1
02:30 0 0 SSE(168) 18.0
02:15 0 0 S(169) 18.0
02:00 0 0 SSE(168) 18.1
01:45 0 0 SSE(167) 18.1
01:30 0 0 S(169) 18.1
Stations at HR:
1455
-> Other regions

Desktop view
Data provided by Holfuy.
© Holfuy Weather 2026